Flag for Puerto Rico Weather past 2 weeks in Caguas, Puerto Rico

83 °F

Passing clouds.

Feels Like: 90 °F
Forecast: 79 / 91 °F
Wind: 12 mph from East

Location: Luis Munoz Marin

Current Time: Oct 13, 2015 at 11:16:39 PM

Latest Report: Oct 13, 2015 at 9:56 PM

Visibility: 10 mi

Pressure: 30.01 "Hg

Humidity: 77%

Dew point: 75 °F

Location of CaguasLocation

Historic Weather in Caguas — Graph


Caguas temperature yesterday

Maximum temperature yesterday: 91 °F (at 10:56 AM)
Minimum temperature yesterday: 80 °F (at 10:56 PM)
Average temperature yesterday: 85 °F

Past Weeks' High & Low Weather Summary

High95 °F (Oct 1, 12:56 PM)88% (Oct 8, 5:56 AM)30.03 "Hg (Oct 8, 5:56 AM)
Low78 °F (Oct 9, 12:56 PM)43% (Oct 4, 3:56 PM)29.71 "Hg (Oct 1, 2:56 PM)
Average85 °F70%29.91 "Hg
* Reported Sep 28 9:56 PM — Oct 13 9:56 PM, Caguas, Weather by CustomWeather, © 2015

Note: Actual official high and low records may vary slightly from our data, if they occured in-between our weather recording intervals... More about our weather records


Caguas weather history for previous 24 hours

Time TempWeatherWind HumidityBarometerVisibility
9:56 PM
Tue, Oct 13
83 °FPassing clouds.12 mph77%30.01 "Hg10 mi
8:56 PM83 °FPassing clouds.5 mph79%30.00 "Hg10 mi
7:56 PM82 °FPassing clouds.10 mph82%29.99 "Hg10 mi
6:56 PM84 °FScattered clouds.9 mph70%29.96 "Hg10 mi
5:56 PM86 °FScattered clouds.13 mph59%29.96 "Hg10 mi
4:56 PM89 °FScattered clouds.18 mph45%29.95 "Hg10 mi
3:56 PM90 °FScattered clouds.17 mph52%29.94 "Hg10 mi
2:56 PM90 °FScattered clouds.17 mph59%29.94 "Hg10 mi
1:56 PM88 °FScattered clouds.17 mph61%29.95 "Hg10 mi
12:56 PM91 °FPassing clouds.16 mph60%29.96 "Hg10 mi
11:56 AM89 °FScattered clouds.18 mph65%29.98 "Hg10 mi
10:56 AM89 °FScattered clouds.14 mph63%29.99 "Hg10 mi
9:56 AM87 °FScattered clouds.15 mph67%30.00 "Hg10 mi
8:56 AM86 °FScattered clouds.13 mph72%29.99 "Hg10 mi
7:56 AM83 °FScattered clouds.3 mph79%29.98 "Hg10 mi
6:56 AM80 °FPassing clouds.3 mph85%29.97 "Hg10 mi
5:56 AM79 °FPassing clouds.No wind88%29.95 "Hg10 mi
4:56 AM79 °FPassing clouds.No wind88%29.95 "Hg10 mi
3:56 AM80 °FPassing clouds.No wind85%29.96 "Hg10 mi
2:56 AM80 °FPassing clouds.No wind87%29.96 "Hg10 mi
1:56 AM80 °FPassing clouds.3 mph87%29.97 "Hg10 mi
12:56 AM81 °FPassing clouds.No wind85%29.99 "Hg10 mi
11:56 PM
Mon, Oct 12
81 °FPassing clouds.8 mph85%29.99 "Hg10 mi
Weather by CustomWeather, © 2015

See weather overviewHow to use our weather pages